Tracking 19176 objects as of 27-May-2018
HD Live streaming from Space Station
objects crossing your sky now

FENGYUN 1C DEB

Track FENGYUN 1C DEB now!
10-day predictions


NORAD ID: 30092
Int'l Code: 1999-025QV
Perigee: 726.7 km
Apogee: 862.0 km
Inclination: 98.7 °
Period: 100.6 minutes
Semi major axis: 7165 km
RCS: 0.046 m2 (small)
Launch date: May 10, 1999
Source: People's Republic of China (PRC)
Launch site: Taiyaun Space Center, China (TSC)

Note: This is SATELLITE DEBRIS
aabbcc
Your satellite tracking list
Your tracking list is empty




NASA's NSSDC Master Catalog

Two Line Element Set (TLE):
1 30092U 99025QV  18146.27750775 +.00000088 +00000-0 +47515-4 0  9991
2 30092 098.6883 246.1636 0094473 071.9804 347.0126 14.31351481592473
Source of the keplerian elements: AFSPC